Time,TemperatureF,DewpointF,PressureIn,WindDirection,WindDirectionDegrees,WindSpeedMPH,WindSpeedGustMPH,Humidity,HourlyPrecipIn,Conditions,Clouds,dailyrainin,SoftwareType,DateUTC
2016-07-27 00:09:00,76.1,69.0,29.90,SSW,200,2.0,-999.0,79,-99.99,,,0.00,weatherlink.com 1.10,2016-07-27 05:09:00,
2016-07-27 00:24:00,76.1,69.0,29.90,SSW,195,0.0,-999.0,79,-99.99,,,0.00,weatherlink.com 1.10,2016-07-27 05:24:00,
2016-07-27 00:39:00,76.0,69.0,29.90,SSW,195,0.0,-999.0,79,-99.99,,,0.00,weatherlink.com 1.10,2016-07-27 05:39:00,
2016-07-27 00:54:00,76.0,69.0,29.89,ESE,123,0.0,-999.0,80,-99.99,,,0.00,weatherlink.com 1.10,2016-07-27 05:54:00,
2016-07-27 01:09:00,75.8,69.0,29.89,SSE,165,0.0,-999.0,80,-99.99,,,0.00,weatherlink.com 1.10,2016-07-27 06:09:00,
2016-07-27 01:24:00,75.4,69.0,29.88,SSE,155,1.0,-999.0,80,-99.99,,,0.00,weatherlink.com 1.10,2016-07-27 06:24:00,
2016-07-27 01:39:00,75.3,69.0,29.88,SSE,154,2.0,-999.0,81,-99.99,,,0.00,weatherlink.com 1.10,2016-07-27 06:39:00,
2016-07-27 01:54:00,75.3,69.0,29.89,SE,143,3.0,-999.0,81,-99.99,,,0.00,weatherlink.com 1.10,2016-07-27 06:54:00,
2016-07-27 02:10:00,75.3,69.0,29.88,South,174,0.0,-999.0,80,-99.99,,,0.00,weatherlink.com 1.10,2016-07-27 07:10:00,
2016-07-27 02:24:00,75.4,69.0,29.88,South,179,0.0,-999.0,80,-99.99,,,0.00,weatherlink.com 1.10,2016-07-27 07:24:00,
2016-07-27 02:39:00,75.4,69.0,29.88,South,174,1.0,-999.0,80,-99.99,,,0.00,weatherlink.com 1.10,2016-07-27 07:39:00,
2016-07-27 02:54:00,75.1,69.0,29.88,SSE,164,1.0,-999.0,82,-99.99,,,0.00,weatherlink.com 1.10,2016-07-27 07:54:00,
2016-07-27 03:10:00,74.9,69.0,29.88,South,174,0.0,-999.0,82,-99.99,,,0.00,weatherlink.com 1.10,2016-07-27 08:10:00,
2016-07-27 03:24:00,74.7,69.0,29.88,South,174,0.0,-999.0,82,-99.99,,,0.00,weatherlink.com 1.10,2016-07-27 08:24:00,
2016-07-27 03:39:00,74.6,69.0,29.88,South,174,0.0,-999.0,83,-99.99,,,0.00,weatherlink.com 1.10,2016-07-27 08:39:00,
2016-07-27 03:54:00,74.6,69.0,29.88,South,181,0.0,-999.0,83,-99.99,,,0.00,weatherlink.com 1.10,2016-07-27 08:54:00,
2016-07-27 04:09:00,74.7,69.0,29.89,SSW,207,2.0,-999.0,83,-99.99,,,0.00,weatherlink.com 1.10,2016-07-27 09:09:00,
2016-07-27 04:24:00,74.6,69.0,29.88,SSW,207,0.0,-999.0,82,-99.99,,,0.00,weatherlink.com 1.10,2016-07-27 09:24:00,
2016-07-27 04:39:00,74.7,69.0,29.87,South,181,0.0,-999.0,82,-99.99,,,0.00,weatherlink.com 1.10,2016-07-27 09:39:00,
2016-07-27 04:54:00,74.4,69.0,29.87,South,181,0.0,-999.0,83,-99.99,,,0.00,weatherlink.com 1.10,2016-07-27 09:54:00,
2016-07-27 05:09:00,74.0,69.0,29.87,South,181,0.0,-999.0,83,-99.99,,,0.00,weatherlink.com 1.10,2016-07-27 10:09:00,